Location: Camaret
(48.2753°N, 4.5961°W)
Time: 03:34:53
(UTC+00:00)

SL-08 ROCKET BODY - Pass Details

Date: 29 October 2020
Orbit: 897 x 962 km, 82.9° (Epoch: 01 December)

Event Time Altitude Azimuth Distance (km) Brightness Sun altitude
Rises 18:34:57 0° 350° (N) 3,616 7.6 -15.7°
Reaches altitude 10° 18:37:26 10° 351° (N) 2,676 6.9 -16.1°
Maximum altitude 18:43:35 90° 69° (ENE) 962 4.4 -17.1°
Drops below altitude 10° 18:49:46 10° 173° (S) 2,688 6.7 -18.1°
Sets 18:52:15 0° 173° (S) 3,633 7.4 -18.6°
